Regional Weather Roundup
Issued by NWS

Home | Current Version | Previous Version | Graphics & Text | Print | Product List | Glossary On
Versions: 1 2 3 4 5 6 7 8 9 10 11 12 13 14 15 16 17 18 19 20 21 22 23 24 25 26 27 28 29 30 31 32 33 34 35 36 37 38 39 40 41 42 43 44 45 46 47 48 49 50
000
ASUS43 KIND 061759
RWRIN

WEATHER ROUNDUP FOR INDIANA
NATIONAL WEATHER SERVICE INDIANAPOLIS IN
100 PM EST FRI MAR 06 2015

NOTE: "FAIR" INDICATES FEW OR NO CLOUDS BELOW 12,000 FEET WITH NO
SIGNIFICANT WEATHER AND/OR OBSTRUCTIONS TO VISIBILITY.

* - STATION DOES NOT REPORT WEATHER SUCH AS PRECIPITATION OR FOG.

+ - STATION NOT QUALITY CONTROLLED BY THE NATIONAL WEATHER SERVICE.
    USE DATA WITH CAUTION...ESPECIALLY DEWPOINT AND RELATIVE
    HUMIDITY OBSERVATIONS.

INZ001>003-010>013-019-020-061900-
NORTHWEST INDIANA

CITY           SKY/WX    TMP DP  RH WIND       PRES   REMARKS
GARY /AIRPORT/ MOSUNNY   21   3  45 MISG      30.38F
VALPARAISO     NOT AVBL

$$

LMZ046-743>745-061900-
SOUTHERN LAKE MICHIGAN

STATION/POSITION TIME  TEMP WIND        PRES
                       AIR  DIR/SP/G
                 (UTC) (F)  (DEG/KT/KT) (MB)
MICHIGAN CITY    1700   15  170/ 17/ 23   N/A

$$

INZ004-005-014>016-021>024-061900-
NORTH CENTRAL INDIANA

CITY           SKY/WX    TMP DP  RH WIND       PRES   REMARKS
ELKHART        FAIR      18   0  45 SW12G18   30.40  WCI   5
GOSHEN         FAIR      17   3  54 S15       30.39F WCI   2
6HR MIN TEMP:  -1; 6HR MAX TEMP:  17;

SOUTH BEND     FAIR      19   5  54 S13       30.38F WCI   6
6HR MIN TEMP:   1; 6HR MAX TEMP:  19;


$$

INZ006>009-017-018-025>027-061900-
NORTHEAST INDIANA

CITY           SKY/WX    TMP DP  RH WIND       PRES   REMARKS
ANGOLA *+      SUNNY     18   0  45 SW15      30.40F WCI   3
FORT WAYNE     PTSUNNY   19   9  65 SW17G23   30.44F WCI   4
6HR MIN TEMP:  -3; 6HR MAX TEMP:  19;


$$

INZ028-029-035-036-043>045-051>053-061900-
WEST CENTRAL INDIANA

CITY           SKY/WX    TMP DP  RH WIND       PRES   REMARKS
CRAWFORDSVL +  FAIR      21   3  46 S14       30.44F WCI   8
6HR MIN TEMP:  -5; 6HR MAX TEMP:  21;

GREENCASTLE +  FAIR      25   3  39 SW8       30.46F WCI  16
LAFAYETTE      FAIR      20   5  52 SW14      30.44F WCI   7
6HR MIN TEMP:  -4; 6HR MAX TEMP:  20;

TERRE HAUTE    FAIR      22   6  50 S13       30.49F WCI  10
6HR MIN TEMP:  -5; 6HR MAX TEMP:  22;


$$

INZ030>032-037>040-046>048-054>057-064-065-061900-
CENTRAL INDIANA

CITY           SKY/WX    TMP DP  RH WIND       PRES   REMARKS
COLUMBUS       SUNNY     23   7  50 S14       30.51F WCI  11
GREENWOOD *+   FAIR      23   5  46 S14       30.48F WCI  11
INDIANAPOLIS   FAIR      23   8  52 S13       30.44F WCI  11
6HR MIN TEMP:   2; 6HR MAX TEMP:  23;

-EAGLE CREEK   FAIR      23   7  50 SW10G21   30.45F WCI  12
6HR MIN TEMP:   2; 6HR MAX TEMP:  23;

KOKOMO *+        N/A    N/A N/A N/A MISG        N/A
MT COMFORT *+  FAIR      23   3  42 S12       30.47F WCI  12
SHELBYVILLE    FAIR      23  10  57 S15       30.48F WCI  10
6HR MIN TEMP:  -1; 6HR MAX TEMP:  23;


$$

INZ033-034-041-042-049-050-058-059-061900-
EAST CENTRAL INDIANA

CITY           SKY/WX    TMP DP  RH WIND       PRES   REMARKS
MUNCIE         FAIR      21   8  57 SW14G23   30.44F WCI   8
6HR MIN TEMP:   3; 6HR MAX TEMP:  21;


$$

INZ060-061-067>069-081>083-085>088-061900-
SOUTHWEST INDIANA

CITY           SKY/WX    TMP DP  RH WIND       PRES   REMARKS
EVANSVILLE     FAIR      23   9  55 SW10      30.57F WCI  12
6HR MIN TEMP:   2; 6HR MAX TEMP:  23;

HUNTINGBURG *+ FAIR      23  10  58 SW10      30.55F WCI  12
6HR MIN TEMP:  -2; 6HR MAX TEMP:  23;


$$

INZ062-063-066-070>080-084-089>092-061900-
SOUTH CENTRAL AND SOUTHEAST INDIANA

CITY           SKY/WX    TMP DP  RH WIND       PRES   REMARKS
BLOOMINGTON    FAIR      25   7  46 SW12      30.47F WCI  14
6HR MIN TEMP:  -1; 6HR MAX TEMP:  25; 6HR PCP: TRACE;

SEYMOUR +      FAIR      27  10  50 S12       30.52F WCI  16

$$



USA.gov is the U.S. government's official web portal to all federal, state and local government web resources and services.